Voltar ao catálogo

STARLINK-36488

AtivoComunicaçõesVLEO
NORAD 67306·PAYLOAD·🇺🇸 United States

Lançado Jan 4, 2026 de Cape Canaveral Space Force Station

Loading…

Próximas Passagens (próximas 24 horas)

TLE

AtualizadoSource: CelesTrak SupGP

Época: Sep 14, 2026, 21:39 UTC

1 67306C 26002B   26257.90256944 -.00021681  00000+0 -78532-3 0  2577
2 67306  43.0009 336.9857 0001302 273.3991  72.4400 15.27587915    19

Acompanhe STARLINK-36488 em tempo real com AllMySat

Download on the App Store